Regional Weather Roundup
Issued by NWS

Home | Current Version | Previous Version | Text Only | Print | Product List | Glossary Off
Versions: 1 2 3 4 5 6 7 8 9 10 11 12 13 14 15 16 17 18 19 20 21 22 23 24 25 26 27 28 29 30 31 32 33 34 35 36 37 38 39 40 41 42 43 44 45 46 47 48 49 50

000
ASUS43 KBIS 211902
RWRND

NORTH DAKOTA REGIONAL WEATHER ROUNDUP
NATIONAL WEATHER SERVICE BISMARCK ND
200 PM CDT THU SEP 21 2017

NOTE: "FAIR" INDICATES FEW OR NO CLOUDS BELOW 12,000 FEET WITH NO
SIGNIFICANT WEATHER AND/OR OBSTRUCTIONS TO VISIBILITY.


NDZ001>003-009>011-017-212000-
NORTHWEST NORTH DAKOTA

CITY           SKY/WX    TMP DP  RH WIND       PRES   REMARKS
WILLISTON      CLOUDY    55  49  80 S5        29.75R
MINOT          CLOUDY    67  45  45 N6        29.69R
MINOT AFB      CLOUDY    66  43  44 E6        29.68R
$$

NDZ018>021-031>035-040>046-212000-
SOUTHWEST NORTH DAKOTA

CITY           SKY/WX    TMP DP  RH WIND       PRES   REMARKS
BISMARCK       CLOUDY    77  55  46 SW13G22   29.65F
DICKINSON      SUNNY     68  43  40 N15G21    29.71R
GARRISON         N/A     68  43  40 NE6       29.68S
HETTINGER ARPT SUNNY     71  38  29 NE15G24   29.70F
$$

NDZ004>008-012>016-024-026-027-054-212000-
NORTHEAST NORTH DAKOTA

CITY           SKY/WX    TMP DP  RH WIND       PRES   REMARKS
GRAND FORKS    MOSUNNY   77  47  34 S18G28    29.74F
GRND FRKS AFB  SUNNY     77  46  33 S18G25    29.74F
DEVILS LAKE    MOSUNNY   76  48  37 S24G33    29.69F
$$

NDZ022-023-025-028>030-036>039-047>053-212000-
SOUTHEAST NORTH DAKOTA

CITY           SKY/WX    TMP DP  RH WIND       PRES   REMARKS
FARGO          SUNNY     79  45  29 SE16G25   29.75F
JAMESTOWN      PTSUNNY   79  46  31 S21G29    29.68F
$$





USA.gov is the U.S. government's official web portal to all federal, state and local government web resources and services.